Time,TemperatureF,DewpointF,PressureIn,WindDirection,WindDirectionDegrees,WindSpeedMPH,WindSpeedGustMPH,Humidity,HourlyPrecipIn,Conditions,Clouds,dailyrainin,SoftwareType,DateUTC
2013-07-19 00:01:00,71.6,0.0,29.91,NW,315,1.1,1.1,0,0.00,,,0.00,WUHU216HW,2013-07-19 04:01:00,
2013-07-19 00:06:00,71.8,0.0,29.91,WNW,293,0.0,1.1,0,0.00,,,0.00,WUHU216HW,2013-07-19 04:06:00,
2013-07-19 00:11:00,71.8,0.0,29.91,WNW,293,0.0,1.1,0,0.00,,,0.00,WUHU216HW,2013-07-19 04:11:00,
2013-07-19 00:16:00,71.8,0.0,29.91,West,270,0.2,0.2,0,0.00,,,0.00,WUHU216HW,2013-07-19 04:16:00,
2013-07-19 00:21:00,71.6,0.0,29.91,West,270,0.0,0.2,0,0.00,,,0.00,WUHU216HW,2013-07-19 04:21:00,
2013-07-19 00:26:00,71.6,0.0,29.91,West,270,0.0,0.2,0,0.00,,,0.00,WUHU216HW,2013-07-19 04:26:00,
2013-07-19 00:31:00,71.5,0.0,29.91,West,270,0.2,0.4,0,0.00,,,0.00,WUHU216HW,2013-07-19 04:31:00,
2013-07-19 00:36:00,71.5,0.0,29.91,West,270,0.0,0.4,0,0.00,,,0.00,WUHU216HW,2013-07-19 04:36:00,
2013-07-19 00:41:00,71.3,0.0,29.90,West,270,0.0,0.0,0,0.00,,,0.00,WUHU216HW,2013-07-19 04:41:00,
2013-07-19 00:46:00,71.3,0.0,29.90,West,270,0.0,0.0,0,0.00,,,0.00,WUHU216HW,2013-07-19 04:46:00,
2013-07-19 00:51:00,71.1,0.0,29.90,West,270,0.0,0.0,0,0.00,,,0.00,WUHU216HW,2013-07-19 04:51:00,
2013-07-19 00:56:00,71.1,0.0,29.90,West,270,0.0,0.0,0,0.00,,,0.00,WUHU216HW,2013-07-19 04:56:00,
2013-07-19 01:01:00,71.1,0.0,29.91,West,270,0.4,0.4,0,0.00,,,0.00,WUHU216HW,2013-07-19 05:01:00,
2013-07-19 01:06:00,71.1,0.0,29.90,West,270,0.2,0.4,0,0.00,,,0.00,WUHU216HW,2013-07-19 05:06:00,
2013-07-19 01:11:00,71.3,0.0,29.90,West,270,0.7,0.7,0,0.00,,,0.00,WUHU216HW,2013-07-19 05:11:00,
2013-07-19 01:16:00,71.3,0.0,29.90,West,270,0.0,0.7,0,0.00,,,0.00,WUHU216HW,2013-07-19 05:16:00,
2013-07-19 01:21:00,71.3,0.0,29.90,West,270,0.0,0.4,0,0.00,,,0.00,WUHU216HW,2013-07-19 05:21:00,
2013-07-19 01:26:00,71.1,0.0,29.90,West,270,0.0,0.0,0,0.00,,,0.00,WUHU216HW,2013-07-19 05:26:00,
2013-07-19 01:31:00,70.9,0.0,29.90,West,270,0.0,0.0,0,0.00,,,0.00,WUHU216HW,2013-07-19 05:31:00,
2013-07-19 01:36:00,70.7,0.0,29.90,WSW,248,0.7,0.7,0,0.00,,,0.00,WUHU216HW,2013-07-19 05:36:00,
2013-07-19 01:41:00,70.7,0.0,29.90,WSW,248,0.4,0.9,0,0.00,,,0.00,WUHU216HW,2013-07-19 05:41:00,
2013-07-19 01:46:00,70.7,0.0,29.90,West,270,0.0,0.9,0,0.00,,,0.00,WUHU216HW,2013-07-19 05:46:00,
2013-07-19 01:51:00,70.7,0.0,29.90,West,270,0.0,0.7,0,0.00,,,0.00,WUHU216HW,2013-07-19 05:51:00,
2013-07-19 01:56:00,70.7,0.0,29.90,West,270,0.0,0.4,0,0.00,,,0.00,WUHU216HW,2013-07-19 05:56:00,
2013-07-19 02:01:00,70.7,0.0,29.90,West,270,0.0,0.4,0,0.00,,,0.00,WUHU216HW,2013-07-19 06:01:00,
2013-07-19 02:06:00,70.7,0.0,29.90,West,270,0.0,0.0,0,0.00,,,0.00,WUHU216HW,2013-07-19 06:06:00,
2013-07-19 02:11:00,70.6,0.0,29.90,West,270,0.0,0.0,0,0.00,,,0.00,WUHU216HW,2013-07-19 06:11:00,
2013-07-19 02:16:00,70.6,0.0,29.90,West,270,0.0,0.0,0,0.00,,,0.00,WUHU216HW,2013-07-19 06:16:00,
2013-07-19 02:21:00,70.4,0.0,29.90,West,270,0.4,0.4,0,0.00,,,0.00,WUHU216HW,2013-07-19 06:21:00,
2013-07-19 02:26:00,70.2,0.0,29.89,West,270,0.4,0.4,0,0.00,,,0.00,WUHU216HW,2013-07-19 06:26:00,
2013-07-19 02:31:00,70.2,0.0,29.89,South,180,0.9,0.9,0,0.00,,,0.00,WUHU216HW,2013-07-19 06:31:00,
2013-07-19 02:36:00,70.2,0.0,29.89,South,180,0.0,0.9,0,0.00,,,0.00,WUHU216HW,2013-07-19 06:36:00,
2013-07-19 02:41:00,70.0,0.0,29.89,SW,225,0.0,0.7,0,0.00,,,0.00,WUHU216HW,2013-07-19 06:41:00,
2013-07-19 02:46:00,70.0,0.0,29.89,SW,225,0.0,0.0,0,0.00,,,0.00,WUHU216HW,2013-07-19 06:46:00,
2013-07-19 02:51:00,70.0,0.0,29.89,South,180,0.4,0.7,0,0.00,,,0.00,WUHU216HW,2013-07-19 06:51:00,
2013-07-19 02:56:00,70.0,0.0,29.89,ESE,113,0.7,1.1,0,0.00,,,0.00,WUHU216HW,2013-07-19 06:56:00,
2013-07-19 03:01:00,70.0,0.0,29.89,ESE,113,0.4,1.1,0,0.00,,,0.00,WUHU216HW,2013-07-19 07:01:00,
2013-07-19 03:06:00,69.8,0.0,29.89,SE,135,0.4,0.7,0,0.00,,,0.00,WUHU216HW,2013-07-19 07:06:00,
2013-07-19 03:11:00,69.8,0.0,29.89,NE,45,0.4,0.7,0,0.00,,,0.00,WUHU216HW,2013-07-19 07:11:00,
2013-07-19 03:16:00,69.8,0.0,29.88,SE,135,0.9,0.9,0,0.00,,,0.00,WUHU216HW,2013-07-19 07:16:00,
2013-07-19 03:21:00,69.8,0.0,29.88,SE,135,0.2,1.1,0,0.00,,,0.00,WUHU216HW,2013-07-19 07:21:00,
2013-07-19 03:26:00,69.8,0.0,29.88,SE,135,0.0,1.1,0,0.00,,,0.00,WUHU216HW,2013-07-19 07:26:00,
2013-07-19 03:31:00,69.8,0.0,29.88,SE,135,0.2,0.4,0,0.00,,,0.00,WUHU216HW,2013-07-19 07:31:00,
2013-07-19 03:36:00,69.8,0.0,29.88,SE,135,0.0,0.4,0,0.00,,,0.00,WUHU216HW,2013-07-19 07:36:00,
2013-07-19 03:41:00,69.8,0.0,29.88,SE,135,0.0,0.0,0,0.00,,,0.00,WUHU216HW,2013-07-19 07:41:00,
2013-07-19 03:46:00,69.7,0.0,29.88,NW,315,0.0,0.2,0,0.00,,,0.00,WUHU216HW,2013-07-19 07:46:00,
2013-07-19 03:51:00,69.7,0.0,29.87,NW,315,0.0,0.2,0,0.00,,,0.00,WUHU216HW,2013-07-19 07:51:00,
2013-07-19 03:56:00,69.7,0.0,29.87,South,180,0.0,0.0,0,0.00,,,0.00,WUHU216HW,2013-07-19 07:56:00,
2013-07-19 04:01:00,69.5,0.0,29.87,South,180,0.0,0.0,0,0.00,,,0.00,WUHU216HW,2013-07-19 08:01:00,
2013-07-19 04:06:00,69.5,0.0,29.87,WNW,293,0.0,0.0,0,0.00,,,0.00,WUHU216HW,2013-07-19 08:06:00,
2013-07-19 04:11:00,69.5,0.0,29.87,WNW,293,0.0,0.0,0,0.00,,,0.00,WUHU216HW,2013-07-19 08:11:00,
2013-07-19 04:16:00,69.5,0.0,29.87,WNW,293,0.0,0.0,0,0.00,,,0.00,WUHU216HW,2013-07-19 08:16:00,
2013-07-19 04:21:00,69.5,0.0,29.87,SSW,203,0.0,0.0,0,0.00,,,0.00,WUHU216HW,2013-07-19 08:21:00,
2013-07-19 04:26:00,69.3,0.0,29.87,SSW,203,0.0,0.0,0,0.00,,,0.00,WUHU216HW,2013-07-19 08:26:00,
2013-07-19 04:31:00,69.1,0.0,29.87,SSW,203,0.0,0.0,0,0.00,,,0.00,WUHU216HW,2013-07-19 08:31:00,
2013-07-19 04:36:00,69.1,0.0,29.87,SW,225,0.0,0.0,0,0.00,,,0.00,WUHU216HW,2013-07-19 08:36:00,
2013-07-19 04:41:00,69.1,0.0,29.86,SW,225,0.0,0.0,0,0.00,,,0.00,WUHU216HW,2013-07-19 08:41:00,
2013-07-19 04:46:00,69.1,0.0,29.86,SW,225,0.0,0.0,0,0.00,,,0.00,WUHU216HW,2013-07-19 08:46:00,
2013-07-19 04:51:00,69.1,0.0,29.86,WSW,248,0.0,0.0,0,0.00,,,0.00,WUHU216HW,2013-07-19 08:51:00,
2013-07-19 04:56:00,68.9,0.0,29.86,WSW,248,0.0,0.0,0,0.00,,,0.00,WUHU216HW,2013-07-19 08:56:00,
2013-07-19 05:01:00,68.9,0.0,29.85,SW,225,0.0,0.0,0,0.00,,,0.00,WUHU216HW,2013-07-19 09:01:00,
2013-07-19 05:06:00,68.8,0.0,29.86,SSW,203,0.0,0.0,0,0.00,,,0.00,WUHU216HW,2013-07-19 09:06:00,
2013-07-19 05:11:00,68.8,0.0,29.85,SSW,203,0.0,0.0,0,0.00,,,0.00,WUHU216HW,2013-07-19 09:11:00,
2013-07-19 05:16:00,68.6,0.0,29.86,SSW,203,0.0,0.0,0,0.00,,,0.00,WUHU216HW,2013-07-19 09:16:00,
2013-07-19 05:21:00,68.4,0.0,29.86,SSW,203,0.0,0.0,0,0.00,,,0.00,WUHU216HW,2013-07-19 09:21:00,
2013-07-19 05:26:00,68.4,0.0,29.86,West,270,0.0,0.0,0,0.00,,,0.00,WUHU216HW,2013-07-19 09:26:00,
2013-07-19 05:31:00,68.6,0.0,29.86,West,270,0.0,0.0,0,0.00,,,0.00,WUHU216HW,2013-07-19 09:31:00,
2013-07-19 05:36:00,68.6,0.0,29.85,West,270,0.0,0.0,0,0.00,,,0.00,WUHU216HW,2013-07-19 09:36:00,
2013-07-19 05:41:00,68.6,0.0,29.85,West,270,0.0,0.0,0,0.00,,,0.00,WUHU216HW,2013-07-19 09:41:00,
2013-07-19 05:46:00,68.8,0.0,29.86,West,270,0.0,0.0,0,0.00,,,0.00,WUHU216HW,2013-07-19 09:46:00,
2013-07-19 05:51:00,68.8,0.0,29.86,West,270,0.0,0.0,0,0.00,,,0.00,WUHU216HW,2013-07-19 09:51:00,
2013-07-19 05:56:00,68.8,0.0,29.86,West,270,0.0,0.0,0,0.00,,,0.00,WUHU216HW,2013-07-19 09:56:00,
2013-07-19 06:01:00,68.9,0.0,29.86,West,270,0.0,0.0,0,0.00,,,0.00,WUHU216HW,2013-07-19 10:01:00,
2013-07-19 06:06:00,69.1,0.0,29.85,WNW,293,0.0,0.0,0,0.00,,,0.00,WUHU216HW,2013-07-19 10:06:00,
2013-07-19 06:11:00,69.3,0.0,29.86,NW,315,0.0,0.0,0,0.00,,,0.00,WUHU216HW,2013-07-19 10:11:00,
2013-07-19 06:16:00,69.5,0.0,29.86,WNW,293,0.0,0.0,0,0.00,,,0.00,WUHU216HW,2013-07-19 10:16:00,
2013-07-19 06:21:00,69.5,0.0,29.86,WNW,293,0.0,0.0,0,0.00,,,0.00,WUHU216HW,2013-07-19 10:21:00,
2013-07-19 06:26:00,69.8,0.0,29.86,WNW,293,0.0,0.0,0,0.00,,,0.00,WUHU216HW,2013-07-19 10:26:00,
2013-07-19 06:31:00,69.8,0.0,29.86,WNW,293,0.0,0.0,0,0.00,,,0.00,WUHU216HW,2013-07-19 10:31:00,
2013-07-19 06:36:00,70.0,0.0,29.86,WNW,293,0.0,0.0,0,0.00,,,0.00,WUHU216HW,2013-07-19 10:36:00,
2013-07-19 06:41:00,70.2,0.0,29.85,WNW,293,0.0,0.0,0,0.00,,,0.00,WUHU216HW,2013-07-19 10:41:00,
2013-07-19 06:46:00,70.6,0.0,29.85,NW,315,0.0,0.0,0,0.00,,,0.00,WUHU216HW,2013-07-19 10:46:00,
2013-07-19 06:51:00,71.1,0.0,29.85,NW,315,0.0,0.0,0,0.00,,,0.00,WUHU216HW,2013-07-19 10:51:00,
2013-07-19 06:56:00,71.5,0.0,29.85,NW,315,0.0,0.0,0,0.00,,,0.00,WUHU216HW,2013-07-19 10:56:00,
2013-07-19 07:01:00,71.6,0.0,29.85,SSW,203,0.0,0.0,0,0.00,,,0.00,WUHU216HW,2013-07-19 11:01:00,
2013-07-19 07:06:00,72.0,0.0,29.85,WSW,248,0.0,0.0,0,0.00,,,0.00,WUHU216HW,2013-07-19 11:06:00,
2013-07-19 07:11:00,72.2,0.0,29.85,South,180,0.0,0.0,0,0.00,,,0.00,WUHU216HW,2013-07-19 11:11:00,
2013-07-19 07:16:00,72.4,0.0,29.85,South,180,0.0,0.0,0,0.00,,,0.00,WUHU216HW,2013-07-19 11:16:00,
2013-07-19 07:21:00,72.7,0.0,29.85,WSW,248,2.2,2.2,0,0.00,,,0.00,WUHU216HW,2013-07-19 11:21:00,
2013-07-19 07:26:00,72.9,0.0,29.84,WSW,248,0.4,2.2,0,0.00,,,0.00,WUHU216HW,2013-07-19 11:26:00,
2013-07-19 07:31:00,73.4,0.0,29.84,SW,225,0.0,0.4,0,0.00,,,0.00,WUHU216HW,2013-07-19 11:31:00,
2013-07-19 07:36:00,73.8,0.0,29.85,West,270,0.0,0.4,0,0.00,,,0.00,WUHU216HW,2013-07-19 11:36:00,
2013-07-19 07:41:00,74.2,0.0,29.85,WNW,293,0.2,0.9,0,0.00,,,0.00,WUHU216HW,2013-07-19 11:41:00,
2013-07-19 07:46:00,74.5,0.0,29.85,WNW,293,0.0,0.9,0,0.00,,,0.00,WUHU216HW,2013-07-19 11:46:00,
2013-07-19 07:51:00,74.9,0.0,29.85,WNW,293,0.0,0.0,0,0.00,,,0.00,WUHU216HW,2013-07-19 11:51:00,
2013-07-19 07:56:00,74.9,0.0,29.85,West,270,0.0,0.2,0,0.00,,,0.00,WUHU216HW,2013-07-19 11:56:00,
2013-07-19 08:01:00,75.2,0.0,29.84,SSW,203,0.0,0.4,0,0.00,,,0.00,WUHU216HW,2013-07-19 12:01:00,
2013-07-19 08:06:00,75.6,0.0,29.84,South,180,0.0,0.4,0,0.00,,,0.00,WUHU216HW,2013-07-19 12:06:00,
2013-07-19 08:11:00,76.0,0.0,29.84,SW,225,0.4,0.4,0,0.00,,,0.00,WUHU216HW,2013-07-19 12:11:00,
2013-07-19 08:16:00,76.0,0.0,29.84,SSW,203,0.7,0.7,0,0.00,,,0.00,WUHU216HW,2013-07-19 12:16:00,
2013-07-19 08:21:00,76.3,0.0,29.84,WSW,248,0.0,0.7,0,0.00,,,0.00,WUHU216HW,2013-07-19 12:21:00,
2013-07-19 08:26:00,76.3,0.0,29.84,WSW,248,0.4,0.4,0,0.00,,,0.00,WUHU216HW,2013-07-19 12:26:00,
2013-07-19 08:31:00,76.3,0.0,29.84,South,180,1.1,1.1,0,0.00,,,0.00,WUHU216HW,2013-07-19 12:31:00,
2013-07-19 08:36:00,76.5,0.0,29.84,WSW,248,0.2,1.1,0,0.00,,,0.00,WUHU216HW,2013-07-19 12:36:00,
2013-07-19 08:41:00,76.9,0.0,29.84,South,180,1.8,1.8,0,0.00,,,0.00,WUHU216HW,2013-07-19 12:41:00,
2013-07-19 08:46:00,77.0,0.0,29.84,SW,225,0.0,2.2,0,0.00,,,0.00,WUHU216HW,2013-07-19 12:46:00,
2013-07-19 08:51:00,77.4,0.0,29.84,SSW,203,2.7,2.7,0,0.00,,,0.00,WUHU216HW,2013-07-19 12:51:00,
2013-07-19 08:56:00,77.6,0.0,29.84,West,270,0.4,2.7,0,0.00,,,0.00,WUHU216HW,2013-07-19 12:56:00,
2013-07-19 09:01:00,77.9,0.0,29.84,South,180,1.8,2.5,0,0.00,,,0.00,WUHU216HW,2013-07-19 13:01:00,
2013-07-19 09:06:00,78.3,0.0,29.84,NW,315,1.3,2.2,0,0.00,,,0.00,WUHU216HW,2013-07-19 13:06:00,
2013-07-19 09:11:00,78.8,0.0,29.84,SW,225,1.1,2.2,0,0.00,,,0.00,WUHU216HW,2013-07-19 13:11:00,
2013-07-19 09:16:00,79.4,0.0,29.83,WSW,248,2.5,2.5,0,0.00,,,0.00,WUHU216HW,2013-07-19 13:16:00,
2013-07-19 09:21:00,79.7,0.0,29.84,WSW,248,2.0,2.7,0,0.00,,,0.00,WUHU216HW,2013-07-19 13:21:00,
2013-07-19 09:26:00,80.1,0.0,29.83,WSW,248,0.4,2.7,0,0.00,,,0.00,WUHU216HW,2013-07-19 13:26:00,
2013-07-19 09:31:00,80.6,0.0,29.84,WNW,293,0.2,2.0,0,0.00,,,0.00,WUHU216HW,2013-07-19 13:31:00,
2013-07-19 09:36:00,81.2,0.0,29.83,West,270,0.9,3.8,0,0.00,,,0.00,WUHU216HW,2013-07-19 13:36:00,
2013-07-19 09:41:00,81.7,0.0,29.83,SW,225,0.7,3.8,0,0.00,,,0.00,WUHU216HW,2013-07-19 13:41:00,
2013-07-19 09:46:00,82.6,0.0,29.83,WSW,248,0.7,1.1,0,0.00,,,0.00,WUHU216HW,2013-07-19 13:46:00,
2013-07-19 09:51:00,83.5,0.0,29.83,SW,225,1.8,2.7,0,0.00,,,0.00,WUHU216HW,2013-07-19 13:51:00,
2013-07-19 09:56:00,84.6,0.0,29.83,WSW,248,0.4,2.7,0,0.00,,,0.00,WUHU216HW,2013-07-19 13:56:00,
2013-07-19 10:01:00,85.5,0.0,29.83,South,180,0.9,2.0,0,0.00,,,0.00,WUHU216HW,2013-07-19 14:01:00,
2013-07-19 10:06:00,86.0,0.0,29.83,WNW,293,0.7,3.4,0,0.00,,,0.00,WUHU216HW,2013-07-19 14:06:00,
2013-07-19 10:11:00,86.8,0.0,29.82,SW,225,0.7,3.4,0,0.00,,,0.00,WUHU216HW,2013-07-19 14:11:00,
2013-07-19 10:16:00,87.7,0.0,29.82,SW,225,1.1,2.0,0,0.00,,,0.00,WUHU216HW,2013-07-19 14:16:00,
2013-07-19 10:21:00,88.4,0.0,29.82,WSW,248,0.9,2.0,0,0.00,,,0.00,WUHU216HW,2013-07-19 14:21:00,
2013-07-19 10:26:00,88.9,0.0,29.82,NW,315,4.0,4.0,0,0.00,,,0.00,WUHU216HW,2013-07-19 14:26:00,
2013-07-19 10:31:00,89.5,0.0,29.82,NW,315,2.7,4.0,0,0.00,,,0.00,WUHU216HW,2013-07-19 14:31:00,
2013-07-19 10:36:00,89.8,0.0,29.82,SW,225,0.9,3.1,0,0.00,,,0.00,WUHU216HW,2013-07-19 14:36:00,
2013-07-19 10:41:00,90.0,0.0,29.82,SE,135,2.7,4.0,0,0.00,,,0.00,WUHU216HW,2013-07-19 14:41:00,
2013-07-19 10:46:00,90.4,0.0,29.82,SW,225,1.1,4.0,0,0.00,,,0.00,WUHU216HW,2013-07-19 14:46:00,
2013-07-19 10:51:00,90.7,0.0,29.82,SSW,203,0.9,4.0,0,0.00,,,0.00,WUHU216HW,2013-07-19 14:51:00,
2013-07-19 10:56:00,91.3,0.0,29.82,West,270,3.4,3.4,0,0.00,,,0.00,WUHU216HW,2013-07-19 14:56:00,
2013-07-19 11:01:00,91.6,0.0,29.81,SE,135,1.6,4.5,0,0.00,,,0.00,WUHU216HW,2013-07-19 15:01:00,
2013-07-19 11:06:00,91.8,0.0,29.81,West,270,2.9,4.5,0,0.00,,,0.00,WUHU216HW,2013-07-19 15:06:00,
2013-07-19 11:11:00,92.5,0.0,29.81,SSW,203,0.9,3.4,0,0.00,,,0.00,WUHU216HW,2013-07-19 15:11:00,
2013-07-19 11:16:00,92.5,0.0,29.81,WSW,248,2.7,3.4,0,0.00,,,0.00,WUHU216HW,2013-07-19 15:16:00,
2013-07-19 11:21:00,92.7,0.0,29.81,SW,225,2.7,4.7,0,0.00,,,0.00,WUHU216HW,2013-07-19 15:21:00,
2013-07-19 11:26:00,92.5,0.0,29.81,WNW,293,2.5,4.7,0,0.00,,,0.00,WUHU216HW,2013-07-19 15:26:00,
2013-07-19 11:31:00,92.9,0.0,29.81,West,270,2.2,3.1,0,0.00,,,0.00,WUHU216HW,2013-07-19 15:31:00,
2013-07-19 11:36:00,93.1,0.0,29.80,West,270,4.0,4.0,0,0.00,,,0.00,WUHU216HW,2013-07-19 15:36:00,
2013-07-19 11:41:00,93.2,0.0,29.80,SW,225,5.6,5.6,0,0.00,,,0.00,WUHU216HW,2013-07-19 15:41:00,
2013-07-19 11:46:00,93.1,0.0,29.80,SW,225,1.6,5.6,0,0.00,,,0.00,WUHU216HW,2013-07-19 15:46:00,
2013-07-19 11:51:00,93.2,0.0,29.80,East,90,1.8,5.1,0,0.00,,,0.00,WUHU216HW,2013-07-19 15:51:00,
2013-07-19 11:56:00,93.2,0.0,29.79,SSW,203,8.9,8.9,0,0.00,,,0.00,WUHU216HW,2013-07-19 15:56:00,
2013-07-19 12:01:00,93.1,0.0,29.79,SSW,203,1.8,8.9,0,0.00,,,0.00,WUHU216HW,2013-07-19 16:01:00,
2013-07-19 12:06:00,93.4,0.0,29.79,West,270,2.5,6.3,0,0.00,,,0.00,WUHU216HW,2013-07-19 16:06:00,
2013-07-19 12:11:00,94.0,0.0,29.79,WSW,248,0.9,4.0,0,0.00,,,0.00,WUHU216HW,2013-07-19 16:11:00,
2013-07-19 12:16:00,94.0,0.0,29.78,SSW,203,3.1,6.7,0,0.00,,,0.00,WUHU216HW,2013-07-19 16:16:00,
2013-07-19 12:21:00,93.8,0.0,29.78,West,270,2.0,6.9,0,0.00,,,0.00,WUHU216HW,2013-07-19 16:21:00,
2013-07-19 12:26:00,93.2,0.0,29.78,NW,315,1.6,6.9,0,0.00,,,0.00,WUHU216HW,2013-07-19 16:26:00,
2013-07-19 12:31:00,93.4,0.0,29.78,WSW,248,2.5,3.8,0,0.00,,,0.00,WUHU216HW,2013-07-19 16:31:00,
2013-07-19 12:36:00,93.8,0.0,29.78,West,270,5.4,5.4,0,0.00,,,0.00,WUHU216HW,2013-07-19 16:36:00,
2013-07-19 12:41:00,94.0,0.0,29.77,South,180,5.4,5.4,0,0.00,,,0.00,WUHU216HW,2013-07-19 16:41:00,
2013-07-19 12:46:00,94.1,0.0,29.78,NNW,338,4.7,7.4,0,0.00,,,0.00,WUHU216HW,2013-07-19 16:46:00,
2013-07-19 12:51:00,94.3,0.0,29.77,WSW,248,4.3,7.4,0,0.00,,,0.00,WUHU216HW,2013-07-19 16:51:00,
2013-07-19 12:56:00,94.0,0.0,29.77,West,270,5.4,5.4,0,0.00,,,0.00,WUHU216HW,2013-07-19 16:56:00,
2013-07-19 13:01:00,94.0,0.0,29.77,SW,225,5.4,6.9,0,0.00,,,0.00,WUHU216HW,2013-07-19 17:01:00,
2013-07-19 13:06:00,94.0,0.0,29.76,WNW,293,3.1,8.7,0,0.00,,,0.00,WUHU216HW,2013-07-19 17:06:00,
2013-07-19 13:11:00,93.8,0.0,29.76,SE,135,1.1,8.7,0,0.00,,,0.00,WUHU216HW,2013-07-19 17:11:00,
2013-07-19 13:16:00,94.0,0.0,29.76,SW,225,6.9,6.9,0,0.00,,,0.00,WUHU216HW,2013-07-19 17:16:00,
2013-07-19 13:21:00,94.1,0.0,29.76,WSW,248,2.2,6.9,0,0.00,,,0.00,WUHU216HW,2013-07-19 17:21:00,
2013-07-19 13:26:00,94.3,0.0,29.76,South,180,2.5,9.4,0,0.00,,,0.00,WUHU216HW,2013-07-19 17:26:00,
2013-07-19 13:31:00,94.5,0.0,29.75,West,270,2.0,9.4,0,0.00,,,0.00,WUHU216HW,2013-07-19 17:31:00,
2013-07-19 13:36:00,94.7,0.0,29.75,SW,225,2.9,3.4,0,0.00,,,0.00,WUHU216HW,2013-07-19 17:36:00,
2013-07-19 13:41:00,94.9,0.0,29.75,WNW,293,2.0,6.7,0,0.00,,,0.00,WUHU216HW,2013-07-19 17:41:00,
2013-07-19 13:46:00,95.0,0.0,29.74,South,180,4.7,6.7,0,0.00,,,0.00,WUHU216HW,2013-07-19 17:46:00,
2013-07-19 13:51:00,95.2,0.0,29.74,SSW,203,1.3,5.4,0,0.00,,,0.00,WUHU216HW,2013-07-19 17:51:00,
2013-07-19 13:56:00,95.4,0.0,29.74,WSW,248,4.0,7.2,0,0.00,,,0.00,WUHU216HW,2013-07-19 17:56:00,
2013-07-19 14:01:00,95.6,0.0,29.74,WSW,248,5.6,7.8,0,0.00,,,0.00,WUHU216HW,2013-07-19 18:01:00,
2013-07-19 14:06:00,95.4,0.0,29.74,ENE,68,1.8,7.8,0,0.00,,,0.00,WUHU216HW,2013-07-19 18:06:00,
2013-07-19 14:11:00,95.2,0.0,29.73,WNW,293,1.8,9.4,0,0.00,,,0.00,WUHU216HW,2013-07-19 18:11:00,
2013-07-19 14:16:00,95.0,0.0,29.73,West,270,4.3,9.4,0,0.00,,,0.00,WUHU216HW,2013-07-19 18:16:00,
2013-07-19 14:21:00,95.4,0.0,29.73,ENE,68,4.3,12.1,0,0.00,,,0.00,WUHU216HW,2013-07-19 18:21:00,
2013-07-19 14:26:00,95.4,0.0,29.73,WSW,248,4.0,12.1,0,0.00,,,0.00,WUHU216HW,2013-07-19 18:26:00,
2013-07-19 14:31:00,95.0,0.0,29.72,SW,225,6.9,7.2,0,0.00,,,0.00,WUHU216HW,2013-07-19 18:31:00,
2013-07-19 14:36:00,95.4,0.0,29.72,WSW,248,6.9,7.2,0,0.00,,,0.00,WUHU216HW,2013-07-19 18:36:00,
2013-07-19 14:41:00,95.9,0.0,29.72,ESE,113,5.4,6.9,0,0.00,,,0.00,WUHU216HW,2013-07-19 18:41:00,
2013-07-19 14:46:00,95.9,0.0,29.72,NNW,338,3.6,6.9,0,0.00,,,0.00,WUHU216HW,2013-07-19 18:46:00,
2013-07-19 14:51:00,96.1,0.0,29.72,WSW,248,4.0,6.9,0,0.00,,,0.00,WUHU216HW,2013-07-19 18:51:00,
2013-07-19 14:56:00,96.1,0.0,29.71,East,90,2.0,5.1,0,0.00,,,0.00,WUHU216HW,2013-07-19 18:56:00,
2013-07-19 15:01:00,95.9,0.0,29.71,South,180,3.6,12.1,0,0.00,,,0.00,WUHU216HW,2013-07-19 19:01:00,
2013-07-19 15:06:00,96.1,0.0,29.70,West,270,5.6,12.1,0,0.00,,,0.00,WUHU216HW,2013-07-19 19:06:00,
2013-07-19 15:11:00,96.3,0.0,29.70,WNW,293,2.5,7.8,0,0.00,,,0.00,WUHU216HW,2013-07-19 19:11:00,
2013-07-19 15:16:00,96.3,0.0,29.70,SSW,203,6.3,6.9,0,0.00,,,0.00,WUHU216HW,2013-07-19 19:16:00,
2013-07-19 15:21:00,96.3,0.0,29.70,NNW,338,3.6,6.3,0,0.00,,,0.00,WUHU216HW,2013-07-19 19:21:00,
2013-07-19 15:26:00,96.1,0.0,29.70,West,270,6.3,6.3,0,0.00,,,0.00,WUHU216HW,2013-07-19 19:26:00,
2013-07-19 15:31:00,96.3,0.0,29.70,West,270,3.8,6.3,0,0.00,,,0.00,WUHU216HW,2013-07-19 19:31:00,
2013-07-19 15:36:00,96.7,0.0,29.70,WNW,293,2.7,5.6,0,0.00,,,0.00,WUHU216HW,2013-07-19 19:36:00,
2013-07-19 15:41:00,96.8,0.0,29.70,WSW,248,3.6,4.7,0,0.00,,,0.00,WUHU216HW,2013-07-19 19:41:00,
2013-07-19 15:46:00,96.8,0.0,29.70,SW,225,1.8,8.7,0,0.00,,,0.00,WUHU216HW,2013-07-19 19:46:00,
2013-07-19 15:51:00,96.5,0.0,29.70,SSE,158,2.5,8.7,0,0.00,,,0.00,WUHU216HW,2013-07-19 19:51:00,
2013-07-19 15:56:00,96.5,0.0,29.70,SSW,203,8.5,8.5,0,0.00,,,0.00,WUHU216HW,2013-07-19 19:56:00,
2013-07-19 16:01:00,96.5,0.0,29.69,SW,225,5.4,8.5,0,0.00,,,0.00,WUHU216HW,2013-07-19 20:01:00,
2013-07-19 16:06:00,96.3,0.0,29.69,SW,225,4.0,7.6,0,0.00,,,0.00,WUHU216HW,2013-07-19 20:06:00,
2013-07-19 16:11:00,96.3,0.0,29.69,SW,225,9.8,10.5,0,0.00,,,0.00,WUHU216HW,2013-07-19 20:11:00,
2013-07-19 16:16:00,96.5,0.0,29.69,NW,315,2.0,10.5,0,0.00,,,0.00,WUHU216HW,2013-07-19 20:16:00,
2013-07-19 16:21:00,96.5,0.0,29.69,SSW,203,5.6,5.6,0,0.00,,,0.00,WUHU216HW,2013-07-19 20:21:00,
2013-07-19 16:26:00,96.1,0.0,29.68,SE,135,2.7,5.6,0,0.00,,,0.00,WUHU216HW,2013-07-19 20:26:00,
2013-07-19 16:31:00,96.3,0.0,29.68,SSW,203,10.3,10.3,0,0.00,,,0.00,WUHU216HW,2013-07-19 20:31:00,
2013-07-19 16:36:00,96.3,0.0,29.68,SW,225,5.8,10.3,0,0.00,,,0.00,WUHU216HW,2013-07-19 20:36:00,
2013-07-19 16:41:00,96.5,0.0,29.68,West,270,2.5,10.3,0,0.00,,,0.00,WUHU216HW,2013-07-19 20:41:00,
2013-07-19 16:46:00,96.8,0.0,29.67,WSW,248,1.6,4.7,0,0.00,,,0.00,WUHU216HW,2013-07-19 20:46:00,
2013-07-19 16:51:00,96.7,0.0,29.67,SSW,203,5.8,5.8,0,0.00,,,0.00,WUHU216HW,2013-07-19 20:51:00,
2013-07-19 16:56:00,96.7,0.0,29.67,South,180,3.4,5.8,0,0.00,,,0.00,WUHU216HW,2013-07-19 20:56:00,
2013-07-19 17:01:00,96.7,0.0,29.67,SW,225,4.0,5.8,0,0.00,,,0.00,WUHU216HW,2013-07-19 21:01:00,
2013-07-19 17:06:00,96.7,0.0,29.67,NW,315,9.4,9.4,0,0.00,,,0.00,WUHU216HW,2013-07-19 21:06:00,
2013-07-19 17:11:00,95.9,0.0,29.67,SE,135,1.8,9.4,0,0.00,,,0.00,WUHU216HW,2013-07-19 21:11:00,
2013-07-19 17:16:00,95.9,0.0,29.67,SSW,203,3.4,11.4,0,0.00,,,0.00,WUHU216HW,2013-07-19 21:16:00,
2013-07-19 17:21:00,95.9,0.0,29.67,WSW,248,6.3,11.4,0,0.00,,,0.00,WUHU216HW,2013-07-19 21:21:00,
2013-07-19 17:26:00,95.9,0.0,29.67,WSW,248,4.5,8.7,0,0.00,,,0.00,WUHU216HW,2013-07-19 21:26:00,
2013-07-19 17:31:00,95.9,0.0,29.67,WNW,293,3.8,6.7,0,0.00,,,0.00,WUHU216HW,2013-07-19 21:31:00,
2013-07-19 17:36:00,95.8,0.0,29.67,SSW,203,0.9,6.3,0,0.00,,,0.00,WUHU216HW,2013-07-19 21:36:00,
2013-07-19 17:41:00,95.8,0.0,29.67,WSW,248,4.3,5.4,0,0.00,,,0.00,WUHU216HW,2013-07-19 21:41:00,
2013-07-19 17:46:00,95.2,0.0,29.67,SSE,158,2.2,5.4,0,0.00,,,0.00,WUHU216HW,2013-07-19 21:46:00,
2013-07-19 17:51:00,94.9,0.0,29.67,SSW,203,4.0,4.7,0,0.00,,,0.00,WUHU216HW,2013-07-19 21:51:00,
2013-07-19 17:56:00,94.5,0.0,29.67,SSW,203,5.4,7.6,0,0.00,,,0.00,WUHU216HW,2013-07-19 21:56:00,
2013-07-19 18:01:00,93.8,0.0,29.67,ESE,113,8.3,8.3,0,0.00,,,0.00,WUHU216HW,2013-07-19 22:01:00,
2013-07-19 18:06:00,93.1,0.0,29.67,SSW,203,1.3,8.3,0,0.00,,,0.00,WUHU216HW,2013-07-19 22:06:00,
2013-07-19 18:11:00,92.7,0.0,29.67,WNW,293,3.4,7.8,0,0.00,,,0.00,WUHU216HW,2013-07-19 22:11:00,
2013-07-19 18:16:00,92.7,0.0,29.67,WSW,248,4.0,4.0,0,0.00,,,0.00,WUHU216HW,2013-07-19 22:16:00,
2013-07-19 18:21:00,92.3,0.0,29.67,SE,135,1.8,5.4,0,0.00,,,0.00,WUHU216HW,2013-07-19 22:21:00,
2013-07-19 18:26:00,92.0,0.0,29.67,WSW,248,1.6,5.4,0,0.00,,,0.00,WUHU216HW,2013-07-19 22:26:00,
2013-07-19 18:31:00,92.2,0.0,29.67,SSW,203,4.9,4.9,0,0.00,,,0.00,WUHU216HW,2013-07-19 22:31:00,
2013-07-19 18:36:00,92.3,0.0,29.67,WNW,293,1.3,4.9,0,0.00,,,0.00,WUHU216HW,2013-07-19 22:36:00,
2013-07-19 18:41:00,92.2,0.0,29.67,SSE,158,1.8,4.9,0,0.00,,,0.00,WUHU216HW,2013-07-19 22:41:00,
2013-07-19 18:46:00,91.8,0.0,29.67,WSW,248,1.1,4.9,0,0.00,,,0.00,WUHU216HW,2013-07-19 22:46:00,
2013-07-19 18:51:00,91.3,0.0,29.67,NW,315,4.5,4.9,0,0.00,,,0.00,WUHU216HW,2013-07-19 22:51:00,
2013-07-19 18:56:00,91.1,0.0,29.67,SW,225,0.4,5.1,0,0.00,,,0.00,WUHU216HW,2013-07-19 22:56:00,
2013-07-19 19:01:00,90.7,0.0,29.67,SSE,158,2.5,5.1,0,0.00,,,0.00,WUHU216HW,2013-07-19 23:01:00,
2013-07-19 19:06:00,90.4,0.0,29.67,SE,135,1.3,4.7,0,0.00,,,0.00,WUHU216HW,2013-07-19 23:06:00,
2013-07-19 19:11:00,90.2,0.0,29.67,SE,135,4.0,6.3,0,0.00,,,0.00,WUHU216HW,2013-07-19 23:11:00,
2013-07-19 19:16:00,90.0,0.0,29.67,WSW,248,1.3,6.3,0,0.00,,,0.00,WUHU216HW,2013-07-19 23:16:00,
2013-07-19 19:21:00,89.6,0.0,29.68,SE,135,2.0,5.4,0,0.00,,,0.00,WUHU216HW,2013-07-19 23:21:00,
2013-07-19 19:26:00,89.5,0.0,29.68,WNW,293,6.0,6.0,0,0.00,,,0.00,WUHU216HW,2013-07-19 23:26:00,
2013-07-19 19:31:00,88.9,0.0,29.68,SSE,158,2.0,6.0,0,0.00,,,0.00,WUHU216HW,2013-07-19 23:31:00,
2013-07-19 19:36:00,88.7,0.0,29.68,NW,315,2.2,6.0,0,0.00,,,0.00,WUHU216HW,2013-07-19 23:36:00,
2013-07-19 19:41:00,88.2,0.0,29.68,South,180,2.0,4.5,0,0.00,,,0.00,WUHU216HW,2013-07-19 23:41:00,
2013-07-19 19:46:00,87.8,0.0,29.68,SSW,203,1.1,4.7,0,0.00,,,0.00,WUHU216HW,2013-07-19 23:46:00,
2013-07-19 19:51:00,87.5,0.0,29.69,SSE,158,1.6,5.4,0,0.00,,,0.00,WUHU216HW,2013-07-19 23:51:00,
2013-07-19 19:56:00,87.3,0.0,29.69,WSW,248,0.0,5.4,0,0.00,,,0.00,WUHU216HW,2013-07-19 23:56:00,
2013-07-19 20:01:00,86.9,0.0,29.69,SSW,203,4.0,4.9,0,0.00,,,0.00,WUHU216HW,2013-07-20 00:01:00,
2013-07-19 20:06:00,86.4,0.0,29.69,SW,225,0.9,4.0,0,0.00,,,0.00,WUHU216HW,2013-07-20 00:06:00,
2013-07-19 20:11:00,86.0,0.0,29.69,South,180,4.7,4.7,0,0.00,,,0.00,WUHU216HW,2013-07-20 00:11:00,
2013-07-19 20:16:00,85.9,0.0,29.69,WSW,248,2.5,4.7,0,0.00,,,0.00,WUHU216HW,2013-07-20 00:16:00,
2013-07-19 20:21:00,85.5,0.0,29.69,South,180,0.4,4.7,0,0.00,,,0.00,WUHU216HW,2013-07-20 00:21:00,
2013-07-19 20:26:00,85.1,0.0,29.69,South,180,0.7,2.5,0,0.00,,,0.00,WUHU216HW,2013-07-20 00:26:00,
2013-07-19 20:31:00,84.8,0.0,29.69,NW,315,1.1,2.5,0,0.00,,,0.00,WUHU216HW,2013-07-20 00:31:00,
2013-07-19 20:36:00,84.6,0.0,29.69,South,180,1.1,3.4,0,0.00,,,0.00,WUHU216HW,2013-07-20 00:36:00,
2013-07-19 20:41:00,84.4,0.0,29.69,SSE,158,2.5,3.4,0,0.00,,,0.00,WUHU216HW,2013-07-20 00:41:00,
2013-07-19 20:46:00,83.9,0.0,29.69,SSE,158,1.6,2.5,0,0.00,,,0.00,WUHU216HW,2013-07-20 00:46:00,
2013-07-19 20:51:00,83.5,0.0,29.69,SW,225,2.2,4.5,0,0.00,,,0.00,WUHU216HW,2013-07-20 00:51:00,
2013-07-19 20:56:00,83.2,0.0,29.69,SW,225,1.6,4.5,0,0.00,,,0.00,WUHU216HW,2013-07-20 00:56:00,
2013-07-19 21:01:00,82.8,0.0,29.69,SW,225,0.7,3.8,0,0.00,,,0.00,WUHU216HW,2013-07-20 01:01:00,
2013-07-19 21:06:00,82.6,0.0,29.69,SE,135,2.9,3.8,0,0.00,,,0.00,WUHU216HW,2013-07-20 01:06:00,
2013-07-19 21:11:00,82.6,0.0,29.69,West,270,3.6,3.6,0,0.00,,,0.00,WUHU216HW,2013-07-20 01:11:00,
2013-07-19 21:16:00,82.6,0.0,29.69,SSW,203,3.1,4.7,0,0.00,,,0.00,WUHU216HW,2013-07-20 01:16:00,
2013-07-19 21:21:00,82.8,0.0,29.69,SW,225,0.9,4.7,0,0.00,,,0.00,WUHU216HW,2013-07-20 01:21:00,
2013-07-19 21:26:00,82.8,0.0,29.69,SSW,203,6.0,6.0,0,0.00,,,0.00,WUHU216HW,2013-07-20 01:26:00,
2013-07-19 21:31:00,83.0,0.0,29.69,East,90,1.8,6.0,0,0.00,,,0.00,WUHU216HW,2013-07-20 01:31:00,
2013-07-19 21:36:00,83.0,0.0,29.69,WNW,293,2.5,6.0,0,0.00,,,0.00,WUHU216HW,2013-07-20 01:36:00,
2013-07-19 21:41:00,82.8,0.0,29.69,SW,225,1.8,4.7,0,0.00,,,0.00,WUHU216HW,2013-07-20 01:41:00,
2013-07-19 21:46:00,82.8,0.0,29.69,SW,225,3.1,4.7,0,0.00,,,0.00,WUHU216HW,2013-07-20 01:46:00,
2013-07-19 21:51:00,82.8,0.0,29.69,WSW,248,3.4,3.8,0,0.00,,,0.00,WUHU216HW,2013-07-20 01:51:00,
2013-07-19 21:56:00,82.6,0.0,29.69,South,180,2.5,3.8,0,0.00,,,0.00,WUHU216HW,2013-07-20 01:56:00,
2013-07-19 22:01:00,82.6,0.0,29.69,WNW,293,0.7,3.4,0,0.00,,,0.00,WUHU216HW,2013-07-20 02:01:00,
2013-07-19 22:06:00,82.6,0.0,29.69,WSW,248,1.6,3.1,0,0.00,,,0.00,WUHU216HW,2013-07-20 02:06:00,
2013-07-19 22:11:00,82.4,0.0,29.69,South,180,1.6,2.9,0,0.00,,,0.00,WUHU216HW,2013-07-20 02:11:00,
2013-07-19 22:16:00,82.4,0.0,29.69,East,90,2.5,2.9,0,0.00,,,0.00,WUHU216HW,2013-07-20 02:16:00,
2013-07-19 22:21:00,82.3,0.0,29.69,SE,135,2.7,4.7,0,0.00,,,0.00,WUHU216HW,2013-07-20 02:21:00,
2013-07-19 22:26:00,82.1,0.0,29.69,SSE,158,1.1,4.7,0,0.00,,,0.00,WUHU216HW,2013-07-20 02:26:00,
2013-07-19 22:31:00,82.1,0.0,29.69,West,270,1.1,4.0,0,0.00,,,0.00,WUHU216HW,2013-07-20 02:31:00,
2013-07-19 22:36:00,81.7,0.0,29.69,South,180,0.4,4.0,0,0.00,,,0.00,WUHU216HW,2013-07-20 02:36:00,
2013-07-19 22:41:00,81.7,0.0,29.69,SSE,158,1.1,1.3,0,0.00,,,0.00,WUHU216HW,2013-07-20 02:41:00,
2013-07-19 22:46:00,81.5,0.0,29.69,SSW,203,0.9,1.6,0,0.00,,,0.00,WUHU216HW,2013-07-20 02:46:00,
2013-07-19 22:51:00,81.2,0.0,29.69,SW,225,2.5,2.5,0,0.00,,,0.00,WUHU216HW,2013-07-20 02:51:00,
2013-07-19 22:56:00,81.0,0.0,29.69,SW,225,1.3,2.5,0,0.00,,,0.00,WUHU216HW,2013-07-20 02:56:00,
2013-07-19 23:01:00,80.8,0.0,29.69,SW,225,2.5,2.5,0,0.00,,,0.00,WUHU216HW,2013-07-20 03:01:00,
2013-07-19 23:06:00,80.8,0.0,29.69,SW,225,0.9,4.7,0,0.00,,,0.00,WUHU216HW,2013-07-20 03:06:00,
2013-07-19 23:11:00,80.6,0.0,29.69,SW,225,1.1,4.7,0,0.00,,,0.00,WUHU216HW,2013-07-20 03:11:00,
2013-07-19 23:16:00,80.6,0.0,29.69,SE,135,1.8,5.8,0,0.00,,,0.00,WUHU216HW,2013-07-20 03:16:00,
2013-07-19 23:21:00,80.6,0.0,29.69,South,180,0.2,5.8,0,0.00,,,0.00,WUHU216HW,2013-07-20 03:21:00,
2013-07-19 23:26:00,80.6,0.0,29.69,ENE,68,1.1,3.6,0,0.00,,,0.00,WUHU216HW,2013-07-20 03:26:00,
2013-07-19 23:31:00,80.5,0.0,29.68,East,90,1.3,2.5,0,0.00,,,0.00,WUHU216HW,2013-07-20 03:31:00,
2013-07-19 23:36:00,80.3,0.0,29.68,SSE,158,1.3,2.7,0,0.00,,,0.00,WUHU216HW,2013-07-20 03:36:00,
2013-07-19 23:41:00,79.9,0.0,29.68,SW,225,2.5,4.7,0,0.00,,,0.00,WUHU216HW,2013-07-20 03:41:00,
2013-07-19 23:46:00,79.7,0.0,29.69,SSW,203,0.2,4.7,0,0.00,,,0.00,WUHU216HW,2013-07-20 03:46:00,
2013-07-19 23:51:00,79.7,0.0,29.69,SW,225,2.0,4.0,0,0.00,,,0.00,WUHU216HW,2013-07-20 03:51:00,
2013-07-19 23:56:00,79.7,0.0,29.69,SW,225,0.9,4.0,0,0.00,,,0.00,WUHU216HW,2013-07-20 03:56:00,